Flag for France Weather past 2 weeks in Le Mans, France

Now
50 °F

Overcast.


Feels Like: 46 °F
Forecast: 37 / 56 °F
Wind: 10 mph from North

Location: Le Mans Airport

Current Time: Apr 27, 2015 at 6:45:32 AM

Latest Report: Apr 27, 2015 at 6:00 AM


Visibility: N/A

Pressure: 29.68 "Hg

Humidity: 82%

Dew point: 45 °F

Location of Le MansLocation

Historic Weather in Le Mans — Graph

°F

Le Mans temperature yesterday

Maximum temperature yesterday: 57 °F (at 6:00 PM)
Minimum temperature yesterday: 50 °F (at 3:00 AM)
Average temperature yesterday: 54 °F

Past Weeks' High & Low Weather Summary

 TemperatureHumidityPressure
High84 °F (Apr 15, 4:30 PM)100% (Apr 12, 7:30 AM)30.48 "Hg (Apr 12, 7:30 AM)
Low39 °F (Apr 13, 6:00 AM)16% (Apr 15, 6:30 PM)29.62 "Hg (Apr 26, 5:00 PM)
Average59 °F61%30.08 "Hg
* Reported Apr 12 5:00 AM — Apr 27 5:00 AM, Le Mans, Weather by CustomWeather, © 2015

Note: Actual official high and low records may vary slightly from our data, if they occured in-between our weather recording intervals... More about our weather records

Advertising

Le Mans weather history for previous 24 hours

 ConditionsComfort  
Time TempWeatherWind HumidityBarometerVisibility
5:00 AM
Mon, Apr 27
50 °FOvercast.12 mph82%29.68 "HgN/A
4:30 AM50 °FOvercast.13 mph88%29.68 "HgN/A
4:00 AM52 °FOvercast.12 mph82%29.68 "Hg4 mi
3:30 AM52 °FMostly cloudy.13 mph88%29.68 "Hg5 mi
3:00 AM54 °FPassing clouds.9 mph88%29.68 "Hg4 mi
2:30 AM52 °FClear.10 mph94%29.65 "Hg5 mi
2:00 AM54 °FPartly cloudy.10 mph88%29.68 "HgN/A
1:30 AM54 °FPassing clouds.10 mph88%29.68 "HgN/A
1:00 AM54 °FOvercast.9 mph88%29.68 "HgN/A
12:30 AM55 °FMostly cloudy.8 mph88%29.68 "HgN/A
12:00 AM55 °FMostly cloudy.7 mph88%29.68 "HgN/A
11:30 PM
Sun, Apr 26
55 °FMostly cloudy.7 mph88%29.65 "HgN/A
11:00 PM55 °FClear.7 mph88%29.65 "HgN/A
10:30 PM55 °FClear.7 mph88%29.65 "HgN/A
10:00 PM55 °FClear.6 mph94%29.65 "HgN/A
9:30 PM55 °FClear.5 mph94%29.65 "HgN/A
9:00 PM55 °FMostly cloudy.6 mph94%29.65 "HgN/A
8:30 PM57 °FMore clouds than sun.5 mph88%29.62 "HgN/A
8:00 PM57 °FBroken clouds.6 mph88%29.62 "Hg6 mi
7:30 PM57 °FPartly sunny.6 mph88%29.62 "HgN/A
7:00 PM57 °FMore clouds than sun.8 mph88%29.62 "HgN/A
6:30 PM57 °FCloudy.8 mph88%29.62 "HgN/A
6:00 PM57 °FPartly sunny.8 mph88%29.62 "HgN/A
5:30 PM55 °FMostly cloudy.9 mph94%29.62 "Hg5 mi
5:00 PM55 °FMostly cloudy.8 mph94%29.62 "Hg5 mi
4:30 PM55 °FLight rain. More clouds than sun.8 mph94%29.65 "Hg4 mi
4:00 PM55 °FLight rain. Fog.9 mph94%29.65 "Hg3 mi
3:30 PM55 °FLight rain. Fog.8 mph94%29.65 "Hg2 mi
3:00 PM55 °FLight rain. Fog.8 mph94%29.68 "Hg2 mi
2:30 PM55 °FLight rain. Mostly cloudy.7 mph94%29.68 "HgN/A
2:00 PM55 °FLight rain. Partly sunny.8 mph94%29.68 "HgN/A
1:30 PM55 °FRain. Partly sunny.6 mph94%29.71 "Hg5 mi
1:00 PM55 °FLight rain. Overcast.9 mph94%29.68 "HgN/A
12:30 PM55 °FLight rain. Mostly cloudy.6 mph88%29.71 "Hg6 mi
12:00 PM55 °FLight rain. Broken clouds.3 mph88%29.71 "HgN/A
11:30 AM55 °FLight rain. Mostly cloudy.5 mph94%29.71 "Hg6 mi
11:00 AM54 °FRain. Fog.No wind94%29.74 "Hg3 mi
10:30 AM54 °FRain. Mostly cloudy.2 mph94%29.74 "Hg4 mi
10:00 AM54 °FLight rain. Overcast.1 mph94%29.74 "Hg6 mi
9:30 AM54 °FLight rain. Clear.3 mph94%29.74 "Hg5 mi
9:00 AM54 °FLight rain. Clear.3 mph88%29.74 "HgN/A
8:30 AM52 °FClear.3 mph94%29.74 "HgN/A
8:00 AM52 °FClear.3 mph94%29.74 "HgN/A
7:30 AM52 °FLight rain. Overcast.3 mph94%29.74 "Hg6 mi
7:00 AM52 °FLight rain. Clear.1 mph88%29.77 "HgN/A
6:30 AM52 °FLight rain. Overcast.1 mph88%29.77 "HgN/A
6:00 AM50 °FCool.No wind94%29.77 "HgN/A
Weather by CustomWeather, © 2015

See weather overviewHow to use our weather pages